ONEWEB-0627 (55168 NORAD) Tracking and Keplerian Element Data

This shows tracking and keplerian element data for the satellite.

Feedback or suggestion? Click here.




ElementValue
Catalog55168
NameONEWEB-0627
Epoch Orbit130
Epoch Day13.91667824
Epoch Year2023
RAAN284.1414
Inclination86.5097
Eccentricity0.0012899
Argument of Perigee210.9615
Mean Anonmoly65.1052
Mean Motion14.9175285
Decay Rate-0.00047498
L11 55168U 23004AE 23013.91667824 -.00047498 00000+0 -47505-2 0 9992
L22 55168 86.5097 284.1414 0012899 210.9615 65.1052 14.91752850 1304



Live tracking and technical data element details for ONEWEB-0627 (NORAD 55168). ONEWEB-0627 can be tracked NOW for your location showing map with azimuth and elevation plus other details from your city location.







IsCatalogInMostPopularTable: catalog: 55168, numindb: 3
Update: records affected: 1



GetName: 55168 ONEWEB-0627

Hit Count: updated at: Tue, 07 Feb 2023 14:51:08 GMT